Regional Weather Roundup
Issued by NWS Columbia, SC

Home | Current Version | Previous Version | Text Only | Print | Product List | Glossary On
Versions: 1 2 3 4 5 6 7 8 9 10 11 12 13 14 15 16 17 18 19 20 21 22 23 24 25 26 27
000
ASUS42 KCAE 271310
RWRCAE
REGIONAL WEATHER ROUNDUP
NATIONAL WEATHER SERVICE COLUMBIA SC
900 AM EDT SUN MAY 27 2018

NOTE: "FAIR" INDICATES FEW OR NO CLOUDS BELOW 12,000 FEET WITH NO
SIGNIFICANT WEATHER AND/OR OBSTRUCTIONS TO VISIBILITY.

NOT ALL STATIONS ARE QUALITY CONTROLLED BY THE NATIONAL
WEATHER SERVICE. USE DATA WITH CAUTION...ESPECIALLY
DEWPOINT OBSERVATIONS.

SCZ001>056-GAZ040-063>065-077-271400-
...UPSTATE SOUTH CAROLINA...

CITY           SKY/WX    TMP DP  RH WIND       PRES   REMARKS
ANDERSON       CLOUDY    73  70  90 S5        30.01R
LIBERTY        PTSUNNY   73  73 100 CALM      30.00S
SPARTANBURG    PTSUNNY   72  68  88 SW3       30.01S
CLEMSON        CLOUDY    72  70  93 CALM      30.01S
GREENVILLE     CLOUDY    75  71  87 CALM      30.02R
GREENWOOD      CLOUDY    72  70  93 CALM      30.03R FOG
GREER          PTSUNNY   74  71  91 SW5       30.02R
ROCK HILL      CLOUDY    72  70  93 SW7       30.04R
CHESTER        CLOUDY    72  70  94 S5        30.04R
LAURENS        LGT RAIN  70  70 100 CALM      30.02R


...CENTRAL SOUTH CAROLINA...

CITY           SKY/WX    TMP DP  RH WIND       PRES   REMARKS
COLUMBIA APT   PTSUNNY   73  72  96 SE3       30.01R
COLUMBIA OWENS FAIR      74  71  91 CALM      30.02R
MCENTIRE ANGB  FAIR      75  75 100 SE6       30.02R
ORANGEBURG     FAIR      75  70  84 CALM      30.01R
SUMTER SHAW    PTSUNNY   73  73 100 CALM      30.00S
NEWBERRY       FAIR      73  70  88 SW5       30.05R
AIKEN          CLOUDY    70  70 100 E3        30.05R FOG
BARNWELL       FAIR      73  72  94 CALM      30.01R
MANNING        FAIR      72  68  88 SE5       30.02R
CAMDEN         FAIR      73  72  94 MISG      30.03R
LANCASTER      CLOUDY    73  73 100 S6        30.03R
WINNSBORO      PTSUNNY   72  70  94 S6        30.02R


...EASTERN AND COASTAL SOUTH CAROLINA...

CITY           SKY/WX    TMP DP  RH WIND       PRES   REMARKS
MYRTLE BEACH   FAIR      79  71  76 S10       30.04R
N MYRTLE BCH   FAIR      79  72  79 S8        30.03R
CONWAY         FAIR      75  73  94 SE3       30.04R
MARION         FAIR      73  70  88 CALM      30.04R FOG
HARTSVILLE     FAIR      73  70  88 S5        30.03R
FLORENCE       FAIR      74  71  91 S5        30.03R
DARLINGTON       N/A     75  72  90 S7        30.04R
CHARLESTON APT CLOUDY    78  72  81 SE7       30.00S
MOUNT PLEASANT FAIR      79  72  78 E5        30.01S
WALTERBORO     FAIR      72  70  94 E6        30.01S
BEAUFORT       FAIR      80  73  79 E8        29.99


...EASTERN GEORGIA...

CITY           SKY/WX    TMP DP  RH WIND       PRES   REMARKS
AUGUSTA BUSH F PTSUNNY   72  71  97 SE3       29.99R
AUGUSTA DANIEL CLOUDY    73  72  96 E3        30.01R
THOMSON        PTSUNNY   75  71  87 CALM      30.04S
WASHINGTON     FAIR      73  70  88 CALM      30.00S
CLAXTON        FAIR      76  73  91 NE3       29.97S
SYLVANIA       FAIR      75  73  94 E5        30.00R
STATESBORO     FAIR      74  71  90 E5        29.98S
SAVANNAH       PTSUNNY   79  72  79 E10       29.97S


...SOUTHERN NORTH CAROLINA...

CITY           SKY/WX    TMP DP  RH WIND       PRES   REMARKS
CHARLOTTE      PTSUNNY   73  72  94 SW9       30.02S
MONROE         CLOUDY    73  71  93 SW8       30.03R
WADESBORO      CLOUDY    74  69  84 S3        30.03R
ROCKINGHAM     PTSUNNY   74  73  94 S7        30.03R
ASHEVILLE      CLOUDY    66  65  96 CALM      30.07R FOG

$$




USA.gov is the U.S. government's official web portal to all federal, state and local government web resources and services.